This demonstration page uses our WeatherBlox Daily Observations layout. Learn more.

Left ArrowRight Arrow

44.8408, -93.29828

Hourly Observations for February 25, 2019

Temp ( °F °C ) Dew Point ( °F °C ) Humidity (%) Winds ( mph kmh ) Pressure ( in mb ) Visibility ( mi km ) Precip ( " mm )
12:53 am 00:53 Clear -3 -19.4 -12 -24.4 65 65 NW 14 22 30.41 1030 10 16 0.00 0.00
1:53 am 01:53 Clear -4 -20 -13 -25 65 65 WNW 13 20 30.45 1031 10 16 0.00 0.00
2:53 am 02:53 Mostly Clear -5 -20.6 -14 -25.6 64 64 NW 15 24 30.47 1032 10 16 0.00 0.00
3:53 am 03:53 Cloudy -4 -20 -14 -25.6 61 61 NW 14 22 30.47 1032 10 16 0.00 0.00
4:53 am 04:53 Cloudy -5 -20.6 -15 -26.1 62 62 NW 13 20 30.51 1033 10 16 0.00 0.00
5:53 am 05:53 Cloudy -5 -20.6 -15 -26.1 62 62 NW 14 22 30.54 1034 10 16 0.00 0.00
6:53 am 06:53 Cloudy -5 -20.6 -15 -26.1 62 62 NNW 8 13 30.55 1035 10 16 0.00 0.00
7:53 am 07:53 Mostly Cloudy -5 -20.6 -16 -26.7 58 58 NNW 8 13 30.56 1035 10 16 0.00 0.00
8:53 am 08:53 Cloudy -4 -20 -15 -26.1 58 58 NNW 10 17 30.58 1036 10 16 0.00 0.00
9:53 am 09:53 Cloudy -3 -19.4 -13 -25 61 61 N 9 15 30.60 1036 10 16 0.00 0.00
10:53 am 10:53 Cloudy -1 -18.3 -13 -25 56 56 WNW 7 11 30.61 1037 10 16 0.00 0.00
11:53 am 11:53 Cloudy 1 -17.2 -11 -23.9 56 56 W 6 9 30.61 1037 10 16 0.00 0.00
12:53 pm 12:53 Cloudy 1 -17.2 -11 -23.9 56 56 NW 6 9 30.60 1036 10 16 0.00 0.00
1:53 pm 13:53 Cloudy 2 -16.7 -10 -23.3 57 57 NW 7 11 30.59 1036 10 16 0.00 0.00
2:53 pm 14:53 Cloudy with Light Snow 3 -16.1 -9 -22.8 57 57 NW 5 7 30.58 1035 9 14 0.00 0.03
3:34 pm 15:34 Mostly Cloudy 3 -16.1 -8 -22.2 60 60 NW 6 9 30.62 1037 10 16 0.00 0.03
3:53 pm 15:53 Mostly Cloudy 3 -16.1 -9 -22.8 57 57 NW 9 15 30.59 1036 10 16 0.00 0.03
4:53 pm 16:53 Mostly Cloudy 3 -16.1 -10 -23.3 54 54 W 6 9 30.58 1036 10 16 0.00 0.00
5:53 pm 17:53 Mostly Cloudy 2 -16.7 -11 -23.9 54 54 WNW 8 13 30.59 1036 10 16 0.00 0.00
6:53 pm 18:53 Mostly Cloudy 0 -17.8 -11 -23.9 59 59 NW 7 11 30.60 1036 10 16 0.00 0.00
7:53 pm 19:53 Cloudy -1 -18.3 -12 -24.4 59 59 NW 7 11 30.61 1037 10 16 0.00 0.00
8:53 pm 20:53 Cloudy -1 -18.3 -12 -24.4 59 59 NW 6 9 30.63 1037 10 16 0.00 0.00
9:53 pm 21:53 Cloudy -1 -18.3 -12 -24.4 59 59 NW 6 9 30.64 1038 10 16 0.00 0.00
10:53 pm 22:53 Cloudy 1 -17.2 -12 -24.4 54 54 NW 6 9 30.66 1038 10 16 0.00 0.00
11:53 pm 23:53 Cloudy 2 -16.7 -10 -23.3 57 57 NNW 7 11 30.66 1038 10 16 0.00 0.00

Powered by AerisWeather